This is the latest recevied weather packets stored in our database for station/object AC5JC-1. If no packets are shown the sender has not sent any weather packets the latest 10 day(s).
| Time | Temp. | Humidity | Pressure | Rain* | Wind** | Luminosity | Snow |
|---|---|---|---|---|---|---|---|
| 1777901155 | 17.22° C | 81% | 1012.8 hPa | 0 mm | - | 127 W/m² | - |
| 1777899636 | 17.22° C | 81% | 1013.1 hPa | 0 mm | - | 96 W/m² | - |
| 1777899061 | 16.67° C | 82% | 1012.9 hPa | 0 mm | - | 56 W/m² | - |
| 1777898736 | 16.67° C | 82% | 1012.9 hPa | 0 mm | - | 43 W/m² | - |
| 1777897235 | 16.67° C | 81% | 1012.7 hPa | 0 mm | - | 25 W/m² | - |
| 1777896069 | 16.11° C | 81% | 1012.7 hPa | 0 mm | - | 12 W/m² | - |
| 1777895435 | 16.11° C | 81% | 1012.6 hPa | 0 mm | - | 6 W/m² | - |
| 1777893336 | 16.11° C | 81% | 1012.8 hPa | 0 mm | - | 0 W/m² | - |
| 1777889435 | 16.11° C | 79% | 1013.3 hPa | 0 mm | - | 0 W/m² | - |
| 1777887655 | 16.67° C | 76% | 1013.4 hPa | 0 mm | - | 0 W/m² | - |
| 1777887335 | 16.11° C | 76% | 1013.2 hPa | 0 mm | - | 0 W/m² | - |
| 1777886135 | 16.67° C | 75% | 1013.2 hPa | 0 mm | - | 0 W/m² | - |
| 1777884661 | 16.67° C | 75% | 1013.7 hPa | 0 mm | - | 0 W/m² | - |
| 1777882585 | 16.67° C | 74% | 1013.9 hPa | 0 mm | - | 0 W/m² | - |
| 1777881935 | 16.67° C | 73% | 1013.9 hPa | 0 mm | - | 0 W/m² | - |
| 1777875935 | 17.22° C | 72% | 1015.1 hPa | 0 mm | - | 0 W/m² | - |
| 1777872935 | 17.78° C | 69% | 1015.5 hPa | 0 mm | - | 0 W/m² | - |
| 1777867236 | 19.44° C | 63% | 1016.3 hPa | 0 mm | - | 0 W/m² | - |
| 1777866935 | 19.44° C | 63% | 1016.2 hPa | 0 mm | - | 0 W/m² | - |
| 1777864835 | 20° C | 60% | 1016 hPa | 0 mm | - | 0 W/m² | - |
| 1777864262 | 20° C | 59% | 1016.1 hPa | 0 mm | - | 0 W/m² | - |
| 1777861556 | 20.56° C | 57% | 1015.7 hPa | 0 mm | - | 0 W/m² | - |
| 1777860678 | 20.56° C | 55% | 1015.5 hPa | 0 mm | - | 0 W/m² | - |
| 1777851366 | 26.67° C | 39% | 1015.6 hPa | 0 mm | - | 187 W/m² | - |
| 1777851046 | 26.11° C | 39% | 1015.7 hPa | 0 mm | - | 201 W/m² | - |
* Rain latest hour (hover to see other rain measurements)
** Current wind speed in m/s (hover to see current wind gust speed)